Orbital Elements at Epoch 2459200.5 (2020-Dec-17.0) TDB
Reference: JPL 25 (heliocentric ecliptic J2000)
Element | Value | Uncertainty (1-sigma) | Units |
e | .0643269539067005 | 3.6527e-08 | |
a | 2.77793076475542 | 1.8405e-08 | au |
q | 2.599234940494993 | 9.7175e-08 | au |
i | 5.40360380316945 | 5.1276e-06 | deg |
node | 167.10317871647 | 3.8819e-05 | deg |
peri | 129.8792614265962 | 5.8717e-05 | deg |
M | 178.1184368017456 | 4.7056e-05 | deg |
tp | 2458363.766942502420 (2018-Sep-02.26694250) | 0.00021737 | TDB |
period | 1691.143859714002 4.63 | 1.6807e-05 4.602e-08 | d yr |
n | .2128736700500934 | 2.1156e-09 | deg/d |
Q | 2.956626589015847 | 1.9589e-08 | au |
|
| | Orbit Determination Parameters
Additional Information
|